www.pogodaiklimat.ru

Погода и климат >> Архив погоды >> Венгрия >> Захонь


ПОГОДА в Захони

  • Прогноз погоды в Захони
  • Монитор погоды в Захони

АРХИВ ПОГОДЫ в Захони

Время (UTC), дата Ветер
(напр.,м/с)
 
Видим.   Явления Облачность Т
(С)
Тd
(С)
f
(%)
Тe
(С)
Тes
(С)
Комфортность P
(гПа)
Po
(гПа)
Тmin
(С)
Tmax
(С)
R
(мм)
R24
(мм)
S
(см)
22 9.09 ЮВ 1 н/о н/о +14.0 +13.2 95 +14 +14 1017.9 1005.3
23 9.09 ЮВ 2 н/о н/о +14.2 +13.4 95 +14 +14 1018.2 1005.6
00 10.09 Ю 2 н/о н/о +14.3 +13.5 95 +14 +14 1018.5 1005.9 3
01 10.09 Ю 1 н/о н/о +14.3 +13.3 94 +15 +15 1018.5 1005.9
02 10.09 Ю 1 н/о н/о +14.0 +13.2 95 +14 +14 1019.1 1006.5
03 10.09 Ю 2 н/о н/о +13.8 +13.0 95 +13 +13 1019.3 1006.7
04 10.09 ЮЗ 1 н/о н/о +13.8 +13.0 95 +14 +14 1019.7 1007.1
05 10.09 В 1 н/о н/о +13.5 +12.9 96 +14 +14 1020.1 1007.4
06 10.09 штиль 0 н/о н/о +14.6 +13.0 90 +14 +14 1020.6 1008.0 +13.1 3
07 10.09 Ю 1 н/о н/о +15.6 +12.4 81 +16 +16 1021.3 1008.7
08 10.09 З 1 н/о н/о +16.7 +12.5 76 +18 +18 1021.4 1008.9
09 10.09 Ю 1 н/о н/о +18.5 +12.0 66 +20 +20 1021.3 1008.8
10 10.09 Ю 2 н/о н/о +18.4 +12.2 67 +19 +19 1021.5 1009.0
11 10.09 Ю 2 н/о н/о +20.1 +11.3 57 +22 +22 комфорт 1021.4 1009.0
12 10.09 СВ 1 н/о н/о +20.7 +11.6 56 +24 +24 комфорт 1021.1 1008.7
13 10.09 ЮЗ 1 н/о н/о +21.8 +12.1 54 +24 +24 комфорт 1020.8 1008.5
14 10.09 СЗ 2 н/о н/о +21.7 +11.4 52 +24 +24 комфорт 1020.6 1008.3
15 10.09 СЗ 2 н/о н/о +21.7 +11.1 51 +24 +24 комфорт 1020.5 1008.2
16 10.09 СЗ 1 н/о н/о +20.1 +11.8 59 +23 +23 комфорт 1020.8 1008.4
17 10.09 СЗ 1 н/о н/о +17.0 +12.9 77 +18 +18 1021.0 1008.5
18 10.09 штиль 0 н/о н/о +15.2 +12.7 85 +15 +15 1021.5 1008.9 +22.2
19 10.09 С 1 н/о н/о +13.7 +11.9 89 +14 +14 1021.9 1009.2
20 10.09 С 1 н/о н/о +13.0 +11.6 91 +13 +13 1022.1 1009.4
21 10.09 С 1 н/о н/о +13.3 +11.4 88 +13 +13 1022.2 1009.5
22 10.09 С 1 н/о н/о +12.6 +11.7 94 +13 +13 1022.2 1009.5
23 10.09 С 1 н/о н/о +12.6 +11.3 92 +13 +13 1022.3 1009.6
00 11.09 СЗ 1 н/о н/о +11.9 +10.8 93 +12 +12 1022.6 1009.8
01 11.09 штиль 0 н/о н/о +10.9 +10.0 94 +10 +10 1022.7 1009.9
02 11.09 СЗ 1 н/о н/о +10.5 +9.7 95 +10 +10 1022.5 1009.7
03 11.09 штиль 0 н/о н/о +9.8 +9.0 95 +9 +9 1022.8 1009.9
04 11.09 З 1 н/о н/о +9.4 +8.8 96 +9 +9 1023.2 1010.3
05 11.09 С 1 н/о н/о +11.0 +10.4 96 +11 +11 1023.6 1010.8
06 11.09 С 1 н/о н/о +13.0 +11.1 88 +13 +13 1023.9 1011.2 +9.2
07 11.09 н/о н/о +16.4 +12.0 75 1024.0 1011.4
08 11.09 С 1 н/о н/о +19.5 +12.8 65 +22 +22 комфорт 1024.1 1011.6
09 11.09 С 1 н/о н/о +22.0 +13.4 58 +25 +25 комфорт 1024.0 1011.7
10 11.09 СЗ 2 н/о н/о +23.5 +12.8 51 +26 +26 жарко 1023.6 1011.3
11 11.09 С 2 н/о н/о +25.5 +13.4 47 +28 +28 жарко 1023.3 1011.1
12 11.09 н/о н/о +26.6 +13.4 44 1022.8 1010.7
13 11.09 З 2 н/о н/о +27.1 +12.0 39 +28 +28 жарко 1022.4 1010.3
14 11.09 З 1 н/о н/о +27.4 +12.2 39 +29 +29 жарко 1022.1 1010.0
15 11.09 СЗ 1 н/о н/о +27.1 +12.3 40 +29 +29 жарко 1022.1 1010.0
16 11.09 СЗ 2 н/о н/о +25.2 +13.1 47 +27 +27 жарко 1022.4 1010.2
17 11.09 СЗ 1 н/о н/о +21.4 +13.8 62 +24 +24 комфорт 1022.7 1010.3
18 11.09 С 1 н/о н/о +18.8 +14.1 74 +21 +21 комфорт 1023.3 1010.8 +27.6
19 11.09 С 1 н/о н/о +17.7 +13.8 78 +19 +19 1023.6 1011.1
20 11.09 н/о н/о +17.3 +13.8 80 1023.7 1011.2
21 11.09 СЗ 1 н/о н/о +17.1 +13.4 79 +18 +18 1024.1 1011.5
22 11.09 СЗ 1 н/о н/о +16.7 +13.6 82 +18 +18 1024.3 1011.7
23 11.09 СЗ 1 н/о н/о +15.5 +13.3 87 +16 +16 1024.4 1011.8
00 12.09 штиль 0 н/о н/о +15.2 +13.2 88 +15 +15 1024.4 1011.8
01 12.09 штиль 0 н/о н/о +15.0 +13.4 90 +15 +15 1024.9 1012.2
02 12.09 штиль 0 н/о н/о +15.0 +13.5 91 +15 +15 1025.2 1012.5
03 12.09 СЗ 1 н/о н/о +14.9 +13.4 91 +15 +15 1025.5 1012.8
04 12.09 С 1 н/о н/о +14.1 +13.0 93 +14 +14 1025.9 1013.2
05 12.09 С 1 н/о н/о +14.0 +12.9 93 +14 +14 1026.1 1013.4
06 12.09 С 1 н/о н/о +15.5 +13.2 86 +16 +16 1026.6 1013.9 +13.7
07 12.09 СЗ 1 н/о н/о +18.1 +14.0 77 +19 +19 1026.8 1014.3
08 12.09 С 1 н/о н/о +21.1 +14.3 65 +24 +24 комфорт 1027.0 1014.6
09 12.09 ЮЗ 1 н/о н/о +23.2 +13.1 53 +26 +26 жарко 1027.0 1014.7
10 12.09 З 2 н/о н/о +24.5 +13.4 50 +27 +27 жарко 1027.1 1014.8
11 12.09 С 2 н/о н/о +26.1 +13.2 45 +28 +28 жарко 1026.9 1014.7
12 12.09 С 2 н/о н/о +27.0 +12.3 40 +28 +28 жарко 1026.5 1014.3
13 12.09 СЗ 2 н/о н/о +27.5 +12.3 39 +29 +29 жарко 1025.9 1013.8
14 12.09 СЗ 3 н/о н/о +27.1 +11.2 37 +28 +28 жарко 1025.8 1013.6
15 12.09 СЗ 2 н/о н/о +27.1 +10.8 36 +28 +28 жарко 1025.7 1013.5
16 12.09 СЗ 2 н/о н/о +25.3 +11.5 42 +27 +27 жарко 1026.0 1013.8
17 12.09 СЗ 1 н/о н/о +23.3 +12.3 50 +26 +26 жарко 1026.3 1014.0
18 12.09 СЗ 2 н/о н/о +21.5 +11.2 52 +23 +23 комфорт 1026.9 1014.5 +27.7
19 12.09 СЗ 2 н/о н/о +18.8 +11.6 63 +20 +20 1027.2 1014.7
20 12.09 С 2 н/о н/о +18.8 +12.3 66 +20 +20 1027.3 1014.8
21 12.09 СЗ 2 н/о н/о +17.4 +12.3 72 +18 +18 1027.5 1014.9
22 12.09 СЗ 1 н/о н/о +16.2 +12.0 76 +17 +17 1027.6 1015.0
23 12.09 СЗ 2 н/о н/о +14.9 +12.2 84 +15 +15 1028.0 1015.3
00 13.09 СЗ 2 н/о н/о +14.8 +12.1 84 +14 +14 1027.8 1015.1
01 13.09 СЗ 1 н/о н/о +14.1 +12.0 87 +14 +14 1027.9 1015.2
02 13.09 СЗ 2 н/о н/о +14.0 +11.9 87 +13 +13 1027.9 1015.2
03 13.09 СЗ 1 н/о н/о +13.2 +11.4 89 +13 +13 1027.9 1015.1
04 13.09 СЗ 1 н/о н/о +12.6 +11.3 92 +13 +13 1028.1 1015.3
05 13.09 СЗ 2 н/о н/о +14.2 +11.7 85 +14 +14 1028.4 1015.7
06 13.09 С 2 н/о н/о +16.2 +12.6 79 +16 +16 1028.4 1015.8 +12.4
07 13.09 С 1 н/о н/о +19.5 +13.2 67 +22 +22 комфорт 1028.5 1016.0
08 13.09 С 2 н/о н/о +22.6 +13.7 57 +26 +26 жарко 1028.4 1016.0
09 13.09 З 1 н/о н/о +24.1 +12.7 49 +26 +26 жарко 1028.1 1015.8
10 13.09 З 2 н/о н/о +25.0 +11.2 42 +26 +26 жарко 1027.6 1015.3
11 13.09 З 2
{7}
н/о н/о +26.4 +10.6 37 +27 +27 жарко 1027.2 1015.0
12 13.09 С 3 н/о н/о +26.9 +10.2 35 +27 +27 жарко 1026.6 1014.4
13 13.09 С 3
{7}
н/о н/о +26.8 +10.1 35 +27 +27 жарко 1026.3 1014.1
14 13.09 СЗ 2 н/о н/о +26.2 +10.0 36 +27 +27 жарко 1026.0 1013.8
15 13.09 СЗ 2 н/о н/о +25.6 +11.4 41 +27 +27 жарко 1025.9 1013.7
16 13.09 СЗ 2 н/о н/о +24.6 +11.2 43 +26 +26 жарко 1025.9 1013.6
17 13.09 С 1 н/о н/о +21.0 +12.9 60 +25 +25 комфорт 1026.2 1013.8
18 13.09 штиль 0 н/о н/о +18.0 +13.5 75 +18 +18 1026.6 1014.1 +27.5
19 13.09 штиль 0 н/о н/о +17.0 +14.1 83 +17 +17 1026.9 1014.3
20 13.09 штиль 0 н/о н/о +18.0 +14.3 79 +18 +18 1027.0 1014.4
21 13.09 С 1 н/о н/о +19.4 +13.3 68 +22 +22 комфорт 1027.1 1014.6
22 13.09 С 1 н/о н/о +19.2 +13.6 70 +22 +22 комфорт 1027.0 1014.5
23 13.09 СЗ 1 н/о н/о +19.0 +13.6 71 +21 +21 комфорт 1027.3 1014.8
00 14.09 С 2 н/о н/о +18.8 +13.2 70 +20 +20 1027.4 1014.9
01 14.09 С 2 н/о н/о +18.0 +12.9 72 +19 +19 1027.5 1014.9
02 14.09 С 2 н/о н/о +16.2 +12.7 80 +16 +16 1027.5 1014.9
03 14.09 СЗ 2 н/о н/о +15.5 +12.8 84 +15 +15 1027.6 1014.9
04 14.09 СЗ 3 н/о н/о +17.3 +13.4 78 +17 +17 1027.9 1015.3
05 14.09 СЗ 4
{7}
н/о н/о +17.4 +13.5 78 +17 +17 1028.6 1016.0
06 14.09 СЗ 4
{8}
н/о н/о +17.7 +12.8 73 +17 +17 1029.1 1016.5 +15.3
07 14.09 СЗ 6
{12}
н/о н/о +19.2 +10.0 55 +20 +20 1029.3 1016.8
08 14.09 С 6
{11}
н/о н/о +18.9 +8.0 49 +19 +19 1030.0 1017.4
09 14.09 С 4
{10}
н/о н/о +19.2 +7.9 48 +20 +20 1029.7 1017.2
10 14.09 С 4
{9}
н/о н/о +21.0 +7.3 41 +22 +22 комфорт 1029.4 1016.9
11 14.09 СЗ 4
{10}
н/о н/о +21.9 +6.2 36 +23 +23 комфорт 1029.2 1016.8
12 14.09 С 4
{9}
н/о н/о +22.0 +5.4 34 +22 +22 комфорт 1028.7 1016.3
13 14.09 СЗ 5
{9}
н/о н/о +22.0 +4.6 32 +22 +22 комфорт 1028.5 1016.1
14 14.09 СЗ 5
{9}
н/о н/о +21.7 +4.7 33 +22 +22 комфорт 1028.3 1015.9
15 14.09 С 4
{10}
н/о н/о +20.9 +4.5 34 +22 +22 комфорт 1028.1 1015.7
16 14.09 С 4
{10}
н/о н/о +19.2 +4.6 38 +20 +20 1028.1 1015.6
17 14.09 С 3
{7}
н/о н/о +17.4 +4.7 43 +17 +17 1028.6 1016.0
18 14.09 С 2
{7}
н/о н/о +15.7 +4.7 48 +16 +16 1029.2 1016.5 +23.0
19 14.09 С 2 н/о н/о +14.1 +4.9 54 +14 +14 1029.8 1017.0
20 14.09 С 1 н/о н/о +11.9 +5.3 64 +12 +12 1030.1 1017.2
21 14.09 С 2 н/о н/о +11.2 +5.9 70 +10 +10 1029.8 1016.9
22 14.09 С 2 н/о н/о +11.1 +5.8 70 +10 +10 1029.7 1016.8
23 14.09 С 2 н/о н/о +9.8 +6.0 77 +8 +8 1029.9 1016.9
00 15.09 С 2 н/о н/о +9.6 +5.4 75 +8 +8 1029.4 1016.4
01 15.09 СЗ 2 н/о н/о +8.6 +5.5 81 +7 +7 1028.9 1015.9
02 15.09 СЗ 1 н/о н/о +7.9 +5.5 85 +7 +7 1028.6 1015.6
03 15.09 С 1 н/о н/о +6.6 +5.1 90 +5 +5 1028.4 1015.3
04 15.09 СЗ 1 н/о н/о +6.2 +4.8 91 +5 +5 1028.4 1015.3
05 15.09 штиль 0 н/о н/о +6.8 +5.3 90 +6 +6 1028.8 1015.7
06 15.09 З 1 н/о н/о +10.4 +6.5 77 +10 +10 1028.5 1015.6 +5.8
07 15.09 В 1 н/о н/о +14.5 +6.3 58 +15 +15 1028.2 1015.5
08 15.09 ЮЗ 1 н/о н/о +16.7 +5.6 48 +18 +18 1027.9 1015.3
09 15.09 С 1 н/о н/о +18.2 +5.8 44 +19 +19 1027.6 1015.0
10 15.09 З 2 н/о н/о +19.7 +4.6 37 +21 +21 комфорт 1026.9 1014.4
11 15.09 ЮЗ 2 н/о н/о +20.7 +5.5 37 +22 +22 комфорт 1026.0 1013.6
12 15.09 Ю 2 н/о н/о +22.1 +5.9 35 +23 +23 комфорт 1025.2 1012.8
13 15.09 ЮЗ 3 н/о н/о +22.4 +6.2 35 +23 +23 комфорт 1024.3 1012.0
14 15.09 ЮЗ 3
{8}
н/о н/о +22.8 +6.1 34 +23 +23 комфорт 1023.5 1011.2
15 15.09 ЮЗ 3 н/о н/о +22.6 +5.1 32 +23 +23 комфорт 1022.8 1010.5
16 15.09 ЮЗ 2 н/о н/о +21.0 +5.8 37 +23 +23 комфорт 1022.4 1010.0
17 15.09 Ю 1 н/о н/о +17.5 +7.0 50 +19 +19 1022.0 1009.5
18 15.09 Ю 1 н/о н/о +14.2 +7.3 63 +15 +15 1022.0 1009.3 +23.4
19 15.09 В 1 н/о н/о +12.1 +7.4 73 +12 +12 1021.9 1009.2
20 15.09 Ю 1 н/о н/о +11.4 +7.3 76 +11 +11 1021.9 1009.1
21 15.09 В 1 н/о н/о +10.3 +7.0 80 +10 +10 1021.6 1008.8
22 15.09 В 1 н/о н/о +9.7 +7.3 85 +9 +9 1021.3 1008.5
23 15.09 В 1 н/о н/о +9.1 +6.9 86 +8 +8 1021.3 1008.4
00 16.09 В 1 н/о н/о +8.6 +6.6 87 +8 +8 1021.2 1008.3
01 16.09 В 2 н/о н/о +8.5 +6.5 87 +7 +7 1020.9 1008.0
02 16.09 В 2 н/о н/о +8.1 +6.4 89 +6 +6 1020.5 1007.6
03 16.09 ЮВ 1 н/о н/о +7.9 +6.4 90 +7 +7 1020.1 1007.2
04 16.09 В 1 н/о н/о +7.4 +6.2 92 +6 +6 1020.1 1007.2
05 16.09 В 1 н/о н/о +8.3 +6.8 90 +7 +7 1020.1 1007.2
06 16.09 ЮВ 2 н/о н/о +12.1 +7.8 75 +11 +11 1019.9 1007.2 +7.3
07 16.09 ЮВ 1 н/о н/о +15.2 +8.2 63 +16 +16 1019.9 1007.3
08 16.09 ЮВ 2 н/о н/о +18.4 +9.2 55 +19 +19 1019.3 1006.9
09 16.09 ЮВ 2 н/о н/о +20.8 +10.3 51 +23 +23 комфорт 1018.8 1006.5
10 16.09 Ю 2 н/о н/о +22.9 +11.0 47 +25 +25 комфорт 1018.1 1005.9
11 16.09 Ю 1 н/о н/о +23.9 +11.3 45 +25 +25 комфорт 1017.1 1004.9
12 16.09 З 2 н/о н/о +24.9 +11.8 44 +26 +26 жарко 1016.1 1004.0
13 16.09 ЮЗ 2 н/о н/о +25.7 +12.2 43 +27 +27 жарко 1015.3 1003.2
14 16.09 З 2 н/о н/о +25.3 +12.2 44 +27 +27 жарко 1014.5 1002.4
15 16.09 З 2 н/о н/о +25.0 +12.6 46 +27 +27 жарко 1014.2 1002.1
16 16.09 штиль 0 н/о н/о +23.1 +13.9 56 +27 +27 душно 1013.9 1001.7
17 16.09 В 1 н/о н/о +20.7 +14.1 66 +24 +24 комфорт 1013.4 1001.1
18 16.09 штиль 0 н/о н/о +19.5 +14.5 73 +21 +21 комфорт 1013.4 1001.1 +26.3
19 16.09 штиль 0 н/о н/о +19.0 +14.7 76 +20 +20 1013.3 1001.0
20 16.09 СЗ 3 н/о н/о +20.2 +13.7 66 +23 +23 комфорт 1013.7 1001.4
21 16.09 С 2 н/о н/о +19.5 +12.5 64 +21 +21 комфорт 1013.5 1001.2

 

Местоположение метеостанции Захонь (Венгрия): широта 48.40 долгота 22.17 высота над уровнем моря 104 м.

В архиве по умолчанию представлена погода в Захони за последнюю неделю. Архивные данные за месяц целиком и за предыдущие месяцы, начиная с января 2011 года, Вы можете получить, выбрав интересующий диапазон дат из раскрывающегося списка и нажав кнопку "Ввод!".


*Определитесь, кто Вы:
робот инопланетянин человек

Внимание! Время в таблицах - всемирное. Для получения местного времени необходимо прибавить поправку, которая равна 1 ч.

Смотрите также архив погоды в соседних городах и на ближайших метеорологических станциях:

Погода в Ужгороде (Закарпатская область, Украина) (27 км)
Погода в Берегове (Закарпатская область, Украина) (39 км)
Погода в Перечине (Закарпатская область, Украина) (43 км)
Погода в Мильхостове (Словакия) (44 км)
Погода в Ньиредьхазе (Венгрия) (52 км)
Погода в Великом Березном (Закарпатская область, Украина) (60 км)
Погода в Каменице-над-Сирочью (Словакия) (60 км)
Погода в Кошице (Словакия) (76 км)
Погода в Плае (Черновицкая область, Украина) (80 км)
Погода в Сату-Маре (Румыния) (92 км)

Пояснения к столбцам:

Ветер - указаны скорость ветра в м/с - средняя за 10 мин, порывы в срок и между сроками (в фигурных скобках) и направление, откуда дует ветер: С - северный, СВ - северо-восточный, В - восточный, ЮВ - юго-восточный, Ю - южный, ЮЗ - юго-западный, З - западный, СЗ - северо-западный.
Видимость - горизонтальная дальность видимости в метрах или километрах. При видимости от 1 до 10 км при отсутствии осадков обычно наблюдается дымка, при ухудшении видимости до 1 км и менее - туман. В сухую погоду видимость может ухудшаться дымом, пылью или мглою.
Явления - указаны атмосферные явления, наблюдавшиеся в срок или в последний час перед сроком; фигурными скобками обозначены явления, наблюдавшиеся между сроками (за 1-3 часа до срока); квадратными скобками обозначены град или гололедные отложения с указанием их диаметра в мм.
Облачность - указаны через наклонную черту общая и нижняя облачность в баллах и высота нижней границы облаков в метрах; квадратными скобками обозначены формы облаков: Ci - перистые, Cs - перисто-слоистые, Cc - перисто-кучевые, Ac - высококучевые, As - высокослоистые, Sc - слоисто-кучевые, Ns - слоисто-дождевые, Cu - кучевые, Cb - кучево-дождевые. Подробнее классификацию облаков см. в Атласе облаков (PDF).
T - Температура воздуха - температура, измеренная на высоте 2 м над землей.
Td - Температура точки росы - температура, при понижении до которой содержащийся в воздухе водяной пар достигнет насыщения.
f - Относительная влажность воздуха - влажноcть воздуха, измеренная на высоте 2 м над землей.
Te - Эффективная температура - температура, которую ощущает одетый по сезону человек в тени. Характеристика душности погоды. При расчете учитывается влияние влажности воздуха и скорости ветра на теплоощущения человека.
Tes - Эффективная температура на солнце - температура, которую ощущает человек, с поправкой на солнечный нагрев. Характеристика знойности погоды. Зависит от высоты солнца над горизонтом, облачности и скорости ветра. Ночью, в пасмурную погоду, а также при ветре 12 м/с и более поправка равна нулю.
P - Атмосферное давление - приведенное к уровню моря атмосферное давление.
Po - Атмосферное давление - измеренное на уровне метеостанции атмосферное давление.
Tmin - Минимальная температура - минимум температуры воздуха на высоте 2 м над землей.
Tmax - Максимальная температура - максимум температуры воздуха на высоте 2 м над землей.
R - Количество осадков - Количество выпавших осадков за период времени, мм. При наведении курсора мыши на число - период времени, за который выпало указанное количество осадков.
R24 - Количество осадков - Количество выпавших осадков за 24 часа, мм.
S - Снежный покров - Высота снежного покрова, см. При наведении курсора мыши на число - состояние снежного покрова и степень покрытия местности в баллах.